[[[{"header":{"parameterUnit":"kt","parameterCategory":2,"dx":1,"dy":1,"la1":30.253999710083008,"la2":30.299108505249023,"lo1":-89.0895004272461,"lo2":-89.04439544677734,"nx":28,"ny":28,"refTime":"2022-09-21T21:00:00:Z","depth":0,"parameterNumber":1,"parameterNumberName":"U-component_of_WINDS"},"data":[1.2608,1.2885,1.305,1.3443,1.3657,1.3955,1.4114,1.4337,1.4557,1.4931,1.5176,1.5371,1.5657,1.599,1.6264,1.6345,1.645,1.6428,1.6528,1.6478,1.6482,1.6486,1.6432,1.6447,1.6447,1.6557,1.6558,1.6558,1.2557,1.2772,1.3027,1.3387,1.3609,1.373,1.4026,1.4204,1.4466,1.4739,1.4989,1.5332,1.5625,1.5926,1.6235,1.637,1.6446,1.6442,1.6436,1.648,1.6432,1.6373,1.6375,1.6375,1.6375,1.6375,1.6375,1.6375,1.2509,1.2667,1.2983,1.3264,1.349,1.373,1.3911,1.4148,1.4401,1.4744,1.4894,1.5194,1.55,1.5956,1.615,1.639,1.6425,1.6473,1.6487,1.6495,1.6483,1.6305,1.645,1.6451,1.6451,1.6452,1.6453,0,1.2525,1.2653,1.2911,1.3217,1.3431,1.3685,1.3945,1.4062,1.4392,1.4587,1.4884,1.5083,1.5477,1.5776,1.6104,1.63,1.6448,1.6481,1.6516,1.6449,1.6346,1.6406,1.6323,1.6476,1.6477,1.6477,1.6478,1.6478,1.2491,1.2656,1.3067,1.3225,1.341,1.3661,1.3845,1.4124,1.4307,1.467,1.4797,1.51,1.5358,1.5806,1.6083,1.6378,1.6454,1.6494,1.6499,1.6427,1.6459,1.6447,1.6466,1.6488,1.6486,1.6485,1.6485,0,1.2456,1.2728,1.3039,1.3431,1.3535,1.3694,1.4031,1.4202,1.4415,1.468,1.4758,1.5092,1.5379,1.5653,1.6036,1.617,1.6439,1.6504,1.6336,1.6365,1.643,1.6421,1.6593,1.6632,1.6616,1.6616,1.6616,0,1.2535,1.2741,1.3137,1.3303,1.3543,1.3819,1.4049,1.4256,1.4525,1.4737,1.4949,1.5143,1.5463,1.5697,1.5895,1.6164,1.6235,1.6355,1.6405,1.6338,1.6323,1.6441,1.644,1.651,1.6509,1.6508,1.6507,0,1.2453,1.2907,1.3178,1.3326,1.3766,1.3887,1.4075,1.438,1.4558,1.4833,1.4952,1.5251,1.5415,1.5644,1.5896,1.5889,1.623,1.6273,1.6353,1.6346,1.6415,1.6408,1.649,1.6506,1.6506,1.6505,1.6505,0,1.256,1.2833,1.3184,1.3556,1.3665,1.3842,1.4158,1.4374,1.4679,1.4817,1.5035,1.5211,1.5466,1.549,1.5848,1.5768,1.5917,1.6056,1.6067,1.6108,1.6128,1.614,1.6188,1.6205,1.6143,1.614,1.6138,0,1.2393,1.2821,1.3063,1.3391,1.3627,1.3853,1.4056,1.432,1.4521,1.4751,1.4974,1.5233,1.5309,1.5428,1.5569,1.5809,1.5912,1.5803,1.6133,1.6141,1.6047,1.6095,1.6034,1.6147,1.6103,1.6107,1.6109,0,1.2299,1.2833,1.2874,1.3056,1.3451,1.3649,1.3881,1.4201,1.4341,1.4614,1.4818,1.5188,1.5262,1.5456,1.5631,1.5763,1.585,1.5824,1.5836,1.5821,1.6107,1.605,1.6067,1.5939,1.5943,1.5947,1.6081,0,1.2403,1.2652,1.2776,1.3166,1.3363,1.3583,1.3877,1.4045,1.4195,1.4402,1.4705,1.4994,1.5319,1.5411,1.5558,1.5771,1.578,1.5854,1.59,1.5926,1.5979,1.5999,1.5798,1.5801,1.5804,1.5806,0,0,1.2176,1.2541,1.28,1.3037,1.3219,1.3452,1.3661,1.3866,1.4272,1.4394,1.4421,1.4984,1.5217,1.5555,1.5586,1.5716,1.5783,1.5761,1.5911,1.5921,1.5932,1.5982,1.5999,1.581,1.5811,1.5812,1.5813,0,1.2276,1.2509,1.2713,1.2938,1.3279,1.349,1.3537,1.3916,1.406,1.4358,1.4546,1.4763,1.5204,1.5429,1.56,1.5727,1.5858,1.5804,1.5775,1.5926,1.5933,1.594,1.5989,1.6002,1.5819,1.5819,1.5819,0,1.2238,1.2517,1.2647,1.3072,1.3298,1.3534,1.3654,1.3898,1.4077,1.432,1.4612,1.4812,1.5136,1.5415,1.5551,1.5581,1.591,1.5857,1.5849,1.5871,1.6032,1.604,1.6046,1.5954,1.5953,1.5952,0,0,1.2283,1.2518,1.2905,1.3116,1.3244,1.3561,1.3716,1.3883,1.4169,1.4283,1.4543,1.4815,1.5077,1.5242,1.5501,1.5765,1.5857,1.5862,1.5856,1.5849,1.5867,1.6025,1.6033,1.595,1.595,1.595,0,0,1.2307,1.2765,1.2866,1.3147,1.3412,1.3809,1.3926,1.406,1.4323,1.4331,1.4623,1.4708,1.4975,1.5164,1.5093,1.5523,1.5562,1.5585,1.539,1.5386,1.5381,1.5331,1.5256,0,0,0,0,0,1.2561,1.2709,1.2795,1.2886,1.3425,1.376,1.3831,1.4076,1.4099,1.4187,1.4426,1.4555,1.5186,1.513,1.5216,1.5293,1.5914,1.592,1.5926,1.574,1.5732,1.5726,0,0,0,0,0,0,1.2599,1.2709,1.2792,1.319,1.3314,1.3757,1.385,1.3921,1.4096,1.4116,1.4505,1.4568,1.4782,1.5103,1.5177,1.5245,1.5232,1.5917,1.5922,1.5927,1.5737,1.5731,1.5726,0,0,0,0,0,1.263,1.272,1.3519,1.319,1.3297,1.3659,1.3847,1.3907,1.4046,1.4418,1.4484,1.4216,1.4777,1.4857,1.5148,1.5205,1.5183,1.5209,1.592,1.5924,1.5928,1.5734,0,0,0,0,0,0,1.2654,1.2777,1.3547,1.3589,1.3153,1.3639,1.3723,1.3893,1.4342,1.4409,1.4141,1.4152,1.4776,1.4838,1.4898,1.5178,1.5143,1.517,1.5187,1.5923,1.5927,1.5929,0,0,0,0,0,0,1.2731,1.2811,1.3568,1.3508,1.3545,1.3619,1.3694,1.3977,1.4344,1.4041,1.4064,1.4141,1.4686,1.4825,1.4872,1.5304,1.5112,1.5138,1.5156,1.5167,1.5926,1.5929,0,0,0,0,0,0,1.2769,1.2838,1.3499,1.3527,1.356,1.4048,1.3874,1.4412,1.4291,1.4017,1.4287,1.4285,1.467,1.4723,1.4854,1.5264,1.5293,1.5113,1.513,1.5143,1.5151,0,0,0,0,0,0,0,1.28,1.2281,1.3298,1.3543,1.3572,1.3976,1.3987,1.3999,1.429,1.4289,1.4287,1.4286,1.4965,1.4993,1.5022,1.5231,0,0,1.511,1.5123,0,0,0,0,0,0,0,0,1.2258,1.2275,1.3299,1.3308,1.3316,1.3977,1.3987,1.3996,1.429,1.4289,1.4288,1.4287,1.4972,1.4995,1.5018,0,0,0,0,0,0,0,0,0,0,0,0,0,0,0,1.33,1.3307,0,1.3979,1.3986,1.3994,1.429,1.4289,1.4288,1.4287,1.4979,1.4997,1.5017,0,0,0,0,0,0,0,0,0,0,0,0,0,0,0,0,0,0,0,0,0,0,0,0,0,0,0,0,0,0,0,0,0,0,0,0,0,0,0,0,0,0,0,0,0,0,0,0,0,0,0,0,0,0,0,0,0,0,0,0,0,0,0,0,0,0,0,0,0]}],[{"header":{"parameterUnit":"kt","parameterCategory":2,"dx":1,"dy":1,"la1":30.253999710083008,"la2":30.299108505249023,"lo1":-89.0895004272461,"lo2":-89.04439544677734,"nx":28,"ny":28,"refTime":"2022-09-21T21:00:00:Z","depth":0,"parameterNumber":2,"parameterNumberName":"V-component_of_WINDS"},"data":[7.5814,7.5693,7.5587,7.5395,7.5265,7.511,7.5019,7.4886,7.475,7.4543,7.4402,7.4269,7.4078,7.3871,7.3702,7.3643,7.3577,7.3617,7.3538,7.3478,7.3461,7.3445,7.3471,7.3606,7.3606,7.3616,7.3616,7.3616,7.578,7.5655,7.5524,7.5322,7.5205,7.5105,7.493,7.4835,7.4695,7.4526,7.4381,7.4183,7.4008,7.3797,7.3604,7.3531,7.3465,7.3486,7.3486,7.3456,7.3389,7.3418,7.3544,7.3543,7.3543,7.3543,7.3543,7.3543,7.569,7.5623,7.544,7.5294,7.5161,7.5023,7.4934,7.4778,7.4639,7.4437,7.4324,7.4157,7.3956,7.3664,7.3534,7.3392,7.3344,7.3326,7.332,7.3318,7.3333,7.3329,7.3353,7.3352,7.3351,7.335,7.335,0,7.5588,7.5504,7.537,7.5205,7.509,7.4947,7.4794,7.4735,7.4501,7.4394,7.4227,7.4109,7.387,7.369,7.3481,7.3345,7.3211,7.3186,7.3172,7.3224,7.33,7.3253,7.3146,7.3184,7.3182,7.318,7.3179,7.3178,7.5485,7.542,7.5172,7.5092,7.4983,7.4854,7.4752,7.4552,7.445,7.4224,7.4166,7.3987,7.3833,7.3571,7.337,7.3185,7.3116,7.3145,7.3087,7.3142,7.3109,7.3115,7.3103,7.3158,7.316,7.3163,7.3164,0,7.5436,7.5258,7.5118,7.4875,7.4811,7.4749,7.4534,7.4451,7.4304,7.4166,7.4121,7.3885,7.3717,7.3511,7.3273,7.3168,7.3041,7.2982,7.311,7.3085,7.3086,7.3087,7.3129,7.3122,7.2985,7.2987,7.2988,0,7.5274,7.5193,7.4929,7.4858,7.4758,7.456,7.4464,7.4327,7.4156,7.4046,7.387,7.3768,7.3521,7.3385,7.3231,7.309,7.3046,7.2955,7.2913,7.2968,7.2979,7.29,7.2891,7.2829,7.2829,7.2829,7.2829,0,7.5213,7.4976,7.486,7.4775,7.4503,7.445,7.4331,7.4137,7.4035,7.3868,7.3798,7.3616,7.3514,7.337,7.3175,7.3144,7.3,7.2915,7.2905,7.291,7.2879,7.2883,7.2979,7.2829,7.2829,7.2829,7.2829,0,7.5051,7.4902,7.4762,7.453,7.4474,7.4394,7.4207,7.4092,7.3897,7.3798,7.3663,7.3518,7.3384,7.3315,7.3121,7.3136,7.3042,7.2943,7.2939,7.2908,7.2836,7.2912,7.3029,7.3031,7.2888,7.2888,7.2888,0,7.5028,7.4838,7.4669,7.4535,7.4419,7.4233,7.4138,7.3973,7.3834,7.3706,7.3546,7.3398,7.3304,7.3228,7.3161,7.2985,7.2966,7.2982,7.278,7.2776,7.2838,7.2945,7.3013,7.3029,7.2892,7.2892,7.2891,0,7.4986,7.4664,7.4652,7.4546,7.4304,7.4203,7.4095,7.391,7.3835,7.3668,7.3565,7.3353,7.3271,7.3147,7.3007,7.2947,7.2972,7.2864,7.2856,7.2887,7.2878,7.2943,7.2947,7.2889,7.2889,7.2888,7.2894,0,7.4776,7.4658,7.4621,7.4395,7.4287,7.4193,7.3985,7.3896,7.3777,7.3632,7.3478,7.3281,7.3081,7.3031,7.291,7.2843,7.2819,7.2733,7.2644,7.2719,7.2714,7.2713,7.2669,7.2665,7.2661,7.2659,0,0,7.4794,7.4622,7.4437,7.4331,7.4227,7.4034,7.3951,7.3824,7.3574,7.3502,7.3454,7.3127,7.2967,7.2798,7.2806,7.2725,7.269,7.2672,7.2686,7.2691,7.2693,7.2693,7.2696,7.2653,7.2652,7.265,7.2649,0,7.4675,7.4539,7.4464,7.4329,7.4122,7.3974,7.3957,7.3713,7.3615,7.3467,7.3298,7.3178,7.2922,7.2773,7.2664,7.269,7.2562,7.2645,7.2731,7.2661,7.267,7.2677,7.2679,7.2684,7.2641,7.2642,7.2642,0,7.4593,7.4422,7.4365,7.4128,7.3988,7.3871,7.3732,7.3614,7.3521,7.3301,7.3155,7.3015,7.2798,7.2671,7.2604,7.2555,7.2459,7.2451,7.2466,7.2451,7.2372,7.2383,7.2393,7.2267,7.2267,7.2266,0,0,7.4516,7.4407,7.4156,7.4086,7.4011,7.3789,7.3704,7.3577,7.3396,7.3323,7.3141,7.2962,7.2808,7.2711,7.2556,7.2447,7.238,7.2415,7.2432,7.2447,7.2442,7.2367,7.2378,7.2265,7.2265,7.2265,0,0,7.4475,7.4186,7.4102,7.3997,7.3836,7.3575,7.3536,7.3422,7.3263,7.3249,7.3017,7.2958,7.2835,7.2701,7.2709,7.2518,7.2436,7.243,7.261,7.2629,7.2646,7.2678,7.2529,0,0,0,0,0,7.4247,7.4223,7.415,7.4102,7.3795,7.3619,7.3576,7.3391,7.3339,7.3312,7.3141,7.3013,7.2657,7.2659,7.2608,7.2599,7.2247,7.225,7.2253,7.2459,7.2481,7.25,0,0,0,0,0,0,7.4226,7.4168,7.415,7.3894,7.3822,7.3617,7.3487,7.3435,7.3337,7.3316,7.3051,7.3004,7.2835,7.2672,7.2629,7.2624,7.2543,7.2248,7.2251,7.2253,7.2467,7.2485,7.2501,0,0,0,0,0,7.4209,7.4162,7.3722,7.3891,7.383,7.3579,7.3487,7.3442,7.3361,7.3096,7.3046,7.3231,7.2841,7.279,7.2645,7.2649,7.2571,7.2556,7.225,7.2252,7.2254,7.2476,0,0,0,0,0,0,7.4196,7.4116,7.3704,7.3678,7.3888,7.3586,7.3533,7.345,7.3143,7.3095,7.3265,7.3252,7.2844,7.2804,7.2767,7.2668,7.2594,7.2578,7.2569,7.2252,7.2253,7.2255,0,0,0,0,0,0,7.4139,7.4095,7.3691,7.3697,7.367,7.3594,7.3547,7.3394,7.3141,7.3328,7.3308,7.3263,7.2895,7.2814,7.2784,7.2552,7.2612,7.2597,7.2587,7.258,7.2253,7.2254,0,0,0,0,0,0,7.4117,7.4079,7.3703,7.3682,7.3658,7.3349,7.3453,7.3146,7.3161,7.3345,7.3156,7.3154,7.2908,7.2874,7.2797,7.2579,7.2559,7.2611,7.2601,7.2594,7.2589,0,0,0,0,0,0,0,7.4099,7.4402,7.3861,7.3669,7.3648,7.3437,7.3429,7.3422,7.316,7.3158,7.3156,7.3154,7.2697,7.2681,7.2664,7.2601,0,0,7.2613,7.2606,0,0,0,0,0,0,0,0,7.4414,7.4405,7.3861,7.3855,7.385,7.3436,7.343,7.3424,7.316,7.3158,7.3157,7.3155,7.2693,7.2679,7.2666,0,0,0,0,0,0,0,0,0,0,0,0,0,0,0,7.386,7.3856,0,7.3435,7.343,7.3425,7.316,7.3158,7.3157,7.3156,7.2689,7.2678,7.2667,0,0,0,0,0,0,0,0,0,0,0,0,0,0,0,0,0,0,0,0,0,0,0,0,0,0,0,0,0,0,0,0,0,0,0,0,0,0,0,0,0,0,0,0,0,0,0,0,0,0,0,0,0,0,0,0,0,0,0,0,0,0,0,0,0,0,0,0,0]}]]]